Location: Bratsk-Energetik
(56.3300°N, 101.7600°E)
Time: 23:22:10
(UTC+08:00)

ISS - Pass Details

Date: 06 May 2021
Orbit: 417 x 422 km, 51.6° (Epoch: 13 June)

Event Time Altitude Azimuth Distance (km) Brightness Sun altitude
Exits shadow 04:08:07 11° 233° (SW) 1,441 -1.7 -8.2°
Maximum altitude 04:11:01 33° 169° (SSE) 740 -2.8 -7.9°
Drops below altitude 10° 04:14:06 10° 104° (ESE) 1,511 -0.5 -7.6°
Sets 04:16:19 0° 94° (E) 2,377 0.7 -7.4°
